Regional Weather Roundup
Issued by NWS Cleveland, OH

Home | Current Version | Previous Version | Graphics & Text | Print | Product List | Glossary On
Versions: 1 2 3 4 5 6 7 8 9 10 11 12 13 14 15 16 17 18 19 20 21 22 23 24 25 26 27 28 29 30 31 32 33 34 35 36 37 38 39 40 41 42 43 44 45 46 47 48 49 50
000
ASUS41 KCLE 251600
RWRCLE
OHIO REGIONAL WEATHER ROUNDUP
NATIONAL WEATHER SERVICE WILMINGTON, OH
1100 AM EST SUN JAN 25 2015

NOTE: "FAIR" INDICATES FEW OR NO CLOUDS BELOW 12,000 FEET WITH NO
SIGNIFICANT WEATHER AND/OR OBSTRUCTIONS TO VISIBILITY.

OHZ001>008-015>018-024>027-034-035-043-044-251700-
   NORTHWEST OHIO

CITY           SKY/WX    TMP DP  RH WIND       PRES   REMARKS
DEFIANCE       LGT SNOW  28  24  85 E20G28    29.83R FOG     WCI  15
FINDLAY        CLOUDY    30  26  85 NE18G25   29.81R WCI  18
TOLEDO EXPRESS LGT SNOW  25  21  85 E20G25    29.86R FOG     WCI  11
TOLEDO EXEC    LGT SNOW  26  21  81 NE10      29.89R WCI  16
LIMA           LGT SNOW  35  31  85 NE9       29.76R FOG     WCI  28
$$

OHZ009>014-019>023-028>033-038-089-251700-
   NORTHEAST OHIO

CITY           SKY/WX    TMP DP  RH WIND       PRES   REMARKS
CLE-HOPKINS    CLOUDY    24  20  84 NE21      29.89R WCI   9
CLE-LAKEFRONT  FLURRIES  23  19  85 NE16G26   29.88R WCI  10
CUY CO. ARPT   CLOUDY    25  23  93 NE16      29.86R WCI  12
LORAIN-ELYRIA  FLURRIES  24  22  91 NE16      29.87R WCI  11
ASHTABULA      CLOUDY    24  18  77 N10       29.87R WCI  14
AKRON-CANTON   LGT SNOW  32  28  85 NE15G21   29.81R VSB 1   WCI  22
WOOSTER        LGT SNOW  33  32  96 N5        29.81R VSB 1   WCI  29
MANSFIELD      CLOUDY    30  30 100 NE13      29.79R FOG     WCI  20
YOUNGSTOWN     LGT SNOW  28  26  92 NE8       29.82R FOG     WCI  20
$$

OHZ042-051>053-060>062-070>072-077>081-251700-
  SOUTHWEST OHIO

CITY           SKY/WX    TMP DP  RH WIND       PRES   REMARKS
CINC-COVINGTON CLOUDY    39  31  72 S6        29.73R
CINC-LUNKEN    CLOUDY    37  33  85 NE3       29.76R
HAMILTON       LGT RAIN  38  34  85 E5        29.76R
DAYTON         LGT RAIN  36  34  93 S6        29.76R FOG
WRIGHT-PAT AFB NOT AVBL
DAYTON GENERAL MIX PCPN  37  33  85 E6        29.74R FOG
WILMINGTON     LGT RAIN  36  31  82 S5        29.75R
$$

OHZ036-037-039>041-045>050-054>059-063>069-073>076-082>088-251700-
  CENTRAL AND SOUTHEAST OHIO

CITY           SKY/WX    TMP DP  RH WIND       PRES   REMARKS
COLUMBUS       FLURRIES  37  31  78 SE3       29.78R
OSU AIRPORT    LGT SNOW  36  31  82 SE3       29.77R
BOLTON FIELD   LGT SNOW  34  32  93 MISG      29.78R VSB 3/4
RICKENBACK AFB NOT AVBL
NEWARK         CLOUDY    36  31  82 SE3       29.78S
MARION         CLOUDY    35  31  85 E5        29.78S FOG
LANCASTER      CLOUDY    37  32  82 SE5       29.79R HAZE
ZANESVILLE     CLOUDY    35  31  85 SE3       29.80S FOG
NEW PHILLY     CLOUDY    36  31  82 E3        29.82R HAZE
$$


USA.gov is the U.S. government's official web portal to all federal, state and local government web resources and services.